TimePDT,TemperatureF,Dew PointF,Humidity,Sea Level PressureIn,VisibilityMPH,Wind Direction,Wind SpeedMPH,Gust SpeedMPH,PrecipitationIn,Events,Conditions,WindDirDegrees,DateUTC
12:53 AM,63.0,53.1,70,30.01,10.0,NNW,4.6,-,N/A,,Clear,330,2013-08-08 07:53:00
1:53 AM,62.1,54.0,75,30.02,10.0,Calm,Calm,-,N/A,,Clear,0,2013-08-08 08:53:00
2:53 AM,57.9,53.1,84,30.02,10.0,Calm,Calm,-,N/A,,Clear,0,2013-08-08 09:53:00
3:53 AM,57.0,53.1,87,30.03,10.0,NE,3.5,-,N/A,,Clear,50,2013-08-08 10:53:00
4:53 AM,57.0,53.1,87,30.04,10.0,WNW,3.5,-,N/A,,Clear,300,2013-08-08 11:53:00
5:53 AM,57.9,53.1,84,30.04,10.0,NNW,3.5,-,N/A,,Clear,330,2013-08-08 12:53:00
6:53 AM,59.0,54.0,83,30.04,10.0,Calm,Calm,-,N/A,,Mostly Cloudy,0,2013-08-08 13:53:00
7:53 AM,60.1,54.0,80,30.04,10.0,Calm,Calm,-,N/A,,Overcast,0,2013-08-08 14:53:00
8:53 AM,62.1,55.0,78,30.04,10.0,Calm,Calm,-,N/A,,Scattered Clouds,0,2013-08-08 15:53:00
9:10 AM,62.1,55.0,78,30.04,10.0,SE,3.5,-,N/A,,Mostly Cloudy,140,2013-08-08 16:10:00
9:53 AM,64.0,55.0,73,30.04,10.0,Calm,Calm,-,N/A,,Mostly Cloudy,0,2013-08-08 16:53:00
10:53 AM,66.0,55.0,68,30.04,10.0,Calm,Calm,-,N/A,,Overcast,0,2013-08-08 17:53:00
11:53 AM,70.0,55.9,61,30.02,10.0,Variable,3.5,-,N/A,,Mostly Cloudy,0,2013-08-08 18:53:00
12:53 PM,73.0,57.0,57,30.00,10.0,Variable,4.6,-,N/A,,Mostly Cloudy,0,2013-08-08 19:53:00
12:58 PM,73.9,57.0,55,30.01,10.0,NNW,4.6,-,N/A,,Scattered Clouds,330,2013-08-08 19:58:00
1:53 PM,77.0,57.9,52,29.98,10.0,Variable,4.6,-,N/A,,Clear,0,2013-08-08 20:53:00
2:53 PM,79.0,57.9,48,29.96,10.0,Variable,5.8,-,N/A,,Clear,0,2013-08-08 21:53:00
3:53 PM,82.0,60.1,47,29.93,10.0,Variable,4.6,-,N/A,,Clear,0,2013-08-08 22:53:00
4:53 PM,82.9,60.1,46,29.92,10.0,Variable,4.6,-,N/A,,Clear,0,2013-08-08 23:53:00
5:53 PM,84.0,55.9,38,29.90,10.0,North,8.1,-,N/A,,Clear,360,2013-08-09 00:53:00
6:53 PM,81.0,60.1,49,29.90,10.0,NNW,12.7,-,N/A,,Clear,340,2013-08-09 01:53:00
7:53 PM,77.0,57.9,52,29.91,10.0,NW,10.4,-,N/A,,Clear,320,2013-08-09 02:53:00
8:53 PM,72.0,55.0,55,29.92,10.0,NW,12.7,-,N/A,,Clear,320,2013-08-09 03:53:00
9:53 PM,69.1,53.1,57,29.92,10.0,NW,11.5,-,N/A,,Clear,310,2013-08-09 04:53:00
10:53 PM,66.9,51.1,57,29.93,10.0,West,6.9,-,N/A,,Clear,280,2013-08-09 05:53:00
11:53 PM,64.0,50.0,60,29.93,10.0,WNW,5.8,-,N/A,,Clear,290,2013-08-09 06:53:00